Location: Indian Hills
(32.9760°N, 85.9450°W)
Time: 04:47:34
(UTC+00:00)

Okean O Rocket - Pass Details

Date: 09 December 2019
Orbit: 624 x 644 km, 98.2° (Epoch: 21 January)

Event Time Altitude Azimuth Distance (km) Brightness Sun altitude
Rises 10:28:27 0° 28° (NNE) 2,926 5.2 -25.8°
Reaches altitude 10° 10:31:00 10° 42° (NE) 2,017 4.5 -25.3°
Maximum altitude 10:34:35 24° 97° (E) 1,303 3.9 -24.6°
Drops below altitude 10° 10:38:10 10° 152° (SSE) 2,017 4.7 -23.8°
Sets 10:40:42 0° 165° (SSE) 2,924 5.4 -23.3°
